Dewpoint
68 69 70 70 71 71 71 71 71 71 71 71 71 71 71 71 70 71 71 72 72 73 73 73 73 73 72 72 72 71 71 70 69 68 68 67 67 66 66 66 65 65 66 66 66 66 66 65 65 65 65 65 65 65 65 65 65 65 64 64 63 62 62 61 60 60 63 63 63 64 65 66 66 67 67 66 67 68 68 68 68 67 67 67 67
68 69 70 70 70 70 71 71 71 71 71 71 71 71 71 71 71 71 71 71 72 72 72 72 73 73 72 72 72 71 71 70 69 68 68 67 67 66 66 66 65 65 66 66 66 66 66 66 65 65 65 65 64 64 65 64 64 64 64 64 64 63 64 62 62 62 62 63 63 64 64 66 65 66 66 66 66 67 67 67 67 66 67 67 66
67 69 69 70 70 70 71 71 71 71 71 70 70 70 71 71 71 71 70 70 72 72 72 72 72 72 72 72 72 71 71 70 69 68 67 67 67 66 66 66 66 65 65 65 65 66 66 66 65 65 65 64 65 64 64 65 65 65 64 64 64 64 64 64 63 62 62 63 64 64 65 65 65 67 66 66 67 67 66 67 66 66 66 66 66
67 68 69 69 70 70 71 71 70 70 70 70 70 70 70 71 71 71 70 70 71 72 72 72 72 72 72 72 71 71 71 70 70 68 67 67 67 67 66 66 65 65 65 65 65 65 65 65 65 65 65 65 65 64 64 65 65 65 65 65 65 64 65 64 65 64 64 63 63 64 65 65 65 66 66 66 65 66 66 66 66 66 66 66 66
67 67 68 68 69 70 70 70 70 70 70 70 70 70 70 70 71 71 71 70 71 71 71 72 72 71 71 71 71 71 70 70 70 69 68 67 67 66 66 66 66 65 65 65 66 65 65 65 65 65 65 65 65 64 64 64 65 65 65 65 65 65 64 65 65 65 64 63 64 64 64 65 65 65 66 65 65 66 66 66 65 66 66 65 64
67 67 68 68 69 70 70 70 70 70 70 70 70 70 70 71 71 71 71 71 71 71 71 71 71 71 71 71 71 71 71 70 70 69 68 67 67 66 66 66 66 66 65 65 66 66 65 65 65 65 65 64 64 65 65 64 65 65 65 65 65 65 65 65 65 65 64 64 64 64 63 64 65 65 65 65 64 65 65 66 65 65 65 64 63
67 67 68 68 69 69 70 70 70 70 71 71 71 71 71 71 70 71 71 71 70 70 70 71 71 71 71 71 71 71 71 70 70 69 69 68 67 66 66 66 66 66 66 65 65 65 65 65 65 65 65 64 64 65 65 65 64 64 65 65 65 65 65 64 65 65 64 64 64 63 63 64 64 63 65 64 64 64 64 64 64 65 65 64 63
67 68 68 69 69 69 70 70 70 70 71 71 71 71 71 71 71 71 71 71 71 70 70 70 71 71 71 71 71 71 70 70 70 69 69 68 67 67 66 65 65 65 66 66 65 65 65 65 64 65 65 64 64 64 65 65 65 65 65 65 65 65 64 64 64 64 64 63 63 63 63 63 63 63 63 63 63 63 64 64 63 63 63 64 64
67 67 68 69 69 70 70 70 70 71 71 71 71 71 71 72 72 72 72 71 71 71 71 71 71 71 71 71 71 70 70 70 69 69 69 68 68 67 66 66 65 65 65 65 65 65 66 65 65 65 66 66 66 65 66 65 65 65 65 65 65 64 64 64 64 64 63 63 63 63 62 62 62 62 62 62 62 63 63 63 63 63 63 61 62
68 68 68 69 69 70 70 71 71 71 71 71 71 71 71 72 72 72 72 71 72 72 71 71 71 70 70 70 70 70 70 70 67 63 64 68 68 67 67 66 66 65 65 65 65 65 65 65 66 67 67 67 66 66 65 66 66 65 65 66 65 64 64 64 64 64 64 63 63 63 61 61 61 62 61 62 62 61 61 62 60 62 61 61 62
68 68 68 69 69 70 70 71 71 71 71 71 71 71 71 72 72 72 72 72 72 72 72 71 70 70 70 70 70 70 70 69 64 62 62 63 67 67 67 67 66 66 66 65 65 65 65 65 65 67 67 68 67 68 67 67 67 66 65 65 65 65 64 63 63 63 64 63 64 63 62 61 62 62 61 60 60 61 61 61 61 60 60 59 58
67 68 68 69 69 70 70 71 71 71 71 71 71 71 71 71 72 72 72 72 72 72 71 71 71 71 71 70 70 70 70 65 62 61 61 61 63 67 67 67 66 66 66 65 65 65 65 65 65 65 66 67 67 68 68 67 66 66 65 64 64 64 64 64 64 64 64 64 63 63 62 62 62 61 61 62 62 61 61 61 60 59 60 60 59
67 68 68 69 70 70 70 71 71 71 71 71 71 72 71 71 71 71 71 72 72 72 72 71 71 71 71 70 70 70 70 65 62 60 61 60 60 63 67 67 67 66 66 66 65 65 65 65 65 66 66 68 68 67 67 68 66 65 65 65 65 64 62 62 63 66 66 65 62 62 62 63 62 62 62 62 63 62 62 60 59 60 60 60 60
68 68 69 69 70 70 70 71 71 71 71 72 72 72 72 71 71 72 72 72 72 72 71 71 71 71 71 71 70 70 70 64 61 60 60 59 60 62 67 67 67 66 66 66 66 66 66 66 66 66 67 67 68 68 67 68 68 68 67 67 67 66 64 62 62 62 65 65 64 62 63 63 63 64 64 64 63 63 62 60 60 60 60 60 61
68 68 69 69 70 70 71 71 71 71 71 72 72 72 72 72 72 72 71 71 71 71 71 71 71 71 71 71 70 70 70 63 59 58 58 58 59 60 67 67 67 67 67 66 67 66 67 67 67 67 67 66 67 67 67 67 67 68 68 67 67 67 67 64 65 66 66 66 65 64 64 64 66 65 65 66 64 63 62 61 61 61 61 60 59
68 69 69 70 70 71 71 71 71 71 71 72 72 72 72 72 72 72 72 71 72 71 72 71 71 71 71 71 70 70 70 61 59 58 57 57 58 64 66 68 68 68 67 67 67 67 67 67 67 67 67 66 66 64 66 67 67 67 67 67 65 65 66 65 63 64 67 67 66 65 65 65 63 65 65 63 63 63 62 63 61 61 60 59 58
67 68 69 69 70 71 71 71 71 71 72 72 72 72 72 72 72 72 72 71 71 71 71 71 71 71 71 71 71 70 70 63 58 57 56 56 59 65 67 67 67 67 67 68 68 67 67 67 67 68 67 67 64 61 63 68 67 66 67 65 64 64 64 64 61 60 61 59 60 60 59 59 58 58 57 57 61 61 61 60 60 59 58 56 56
67 68 69 69 70 71 71 71 71 71 71 71 71 71 72 72 72 72 72 71 71 71 71 71 71 71 71 71 70 70 70 64 57 56 55 56 61 66 67 67 67 67 67 67 68 68 67 68 67 66 67 66 62 59 61 66 67 66 65 64 64 64 64 63 64 64 60 59 59 58 58 58 58 57 56 56 56 57 61 59 58 55 56 56 55
67 67 68 69 70 71 71 72 72 71 71 71 71 71 72 72 72 72 72 72 71 72 71 71 71 71 71 70 67 69 70 65 56 56 55 55 61 67 67 67 66 67 67 66 67 67 67 68 68 67 66 65 59 58 59 64 67 65 64 64 63 63 64 63 63 63 63 63 62 62 62 60 61 61 61 58 56 59 62 61 58 57 56 56 56
67 67 68 69 70 71 71 72 72 72 71 72 72 72 72 72 72 72 72 72 71 71 71 71 71 71 71 70 70 70 70 70 61 55 54 55 58 67 67 67 66 66 66 66 66 66 67 67 67 61 60 59 57 56 57 58 65 65 65 65 63 63 65 64 64 64 63 63 62 63 63 62 60 60 60 60 60 60 60 60 58 58 58 57 56
68 69 69 69 69 70 71 71 71 71 72 72 72 72 72 72 72 72 71 71 71 71 71 71 70 71 71 71 71 71 70 70 62 54 54 54 56 61 67 66 66 66 66 66 66 66 66 66 67 62 57 56 56 54 54 55 60 65 66 65 65 66 62 64 64 63 63 62 62 61 61 60 59 59 59 59 58 59 60 58 58 58 59 56 53
68 68 68 68 69 70 70 71 72 71 72 72 72 72 72 72 72 72 71 71 71 71 71 71 71 70 71 71 71 71 69 66 65 55 54 53 54 57 66 67 66 67 66 66 66 66 66 66 66 61 56 56 55 53 52 53 57 66 66 59 57 58 63 63 63 63 61 61 61 60 59 58 57 57 56 57 58 59 58 59 58 58 58 55 55
69 68 68 68 69 69 70 71 71 72 72 72 72 72 72 72 72 72 72 71 71 71 71 71 71 71 71 71 71 72 72 69 61 60 54 53 53 55 60 63 61 67 66 66 66 65 66 66 66 61 56 54 52 51 51 52 57 63 55 53 55 57 61 62 62 62 60 60 59 59 58 57 57 56 56 57 57 59 57 58 58 58 59 58 57
70 69 68 68 68 69 69 70 71 71 72 72 72 72 72 72 72 72 72 71 71 71 71 71 71 70 70 70 71 71 71 70 61 59 58 53 52 54 56 59 59 66 67 66 66 65 65 66 64 57 54 50 50 50 51 54 61 53 51 54 56 59 62 61 60 60 59 58 58 57 57 57 57 56 56 57 57 58 57 56 57 56 56 56 56
70 69 69 68 68 69 69 70 70 71 71 72 72 71 72 72 72 72 72 71 71 71 71 71 70 70 70 70 70 69 69 69 67 62 58 54 53 53 56 57 58 59 66 66 66 65 61 57 55 53 51 49 50 51 51 53 53 51 52 55 60 61 61 60 59 58 58 57 57 57 56 57 57 57 58 59 59 59 58 56 55 55 55 55 55
70 70 69 69 69 69 69 69 70 70 71 71 71 71 71 71 71 72 71 71 71 71 71 70 70 70 70 70 69 68 67 67 65 63 59 56 55 54 56 57 59 60 62 64 60 58 55 54 52 51 51 52 56 59 59 58 53 54 54 58 61 60 59 59 58 58 57 57 56 56 56 57 56 58 59 58 57 57 56 56 54 52 52 54 53
70 70 70 70 70 69 69 68 69 69 70 71 71 71 72 71 71 71 71 71 71 71 70 70 70 69 69 69 68 67 65 65 63 61 60 59 59 57 59 60 58 58 62 61 58 58 56 57 57 55 56 56 58 58 58 55 56 56 59 59 59 58 58 58 58 58 58 57 56 56 56 56 57 57 57 57 57 57 56 56 53 52 53 53 52
70 71 71 71 70 70 69 69 69 69 69 70 70 71 71 71 71 71 71 71 71 71 70 70 69 69 69 69 67 65 64 64 62 60 59 59 59 60 62 62 62 63 61 61 61 60 58 54 54 58 59 60 59 58 57 58 57 57 57 57 57 57 57 57 57 57 57 57 56 56 56 56 56 56 56 55 55 55 55 55 54 53 51 51 49
68 69 70 71 72 71 71 70 70 69 69 70 71 71 71 71 71 71 71 72 72 71 71 71 70 70 69 68 66 64 64 63 62 58 59 57 59 61 62 62 62 62 59 56 60 60 59 59 59 59 59 59 59 58 57 56 56 56 56 55 55 56 57 57 57 56 56 56 56 56 56 55 56 56 56 55 56 54 54 54 54 53 53 50 45
68 68 67 68 69 70 71 72 71 71 71 70 71 71 67 59 66 72 72 67 65 64 64 70 70 70 69 67 66 65 64 64 55 52 51 51 52 55 56 55 55 58 55 55 59 59 59 59 59 59 59 59 59 59 58 58 57 55 55 54 54 54 55 56 56 56 55 56 56 55 55 55 55 55 55 55 56 53 52 51 53 52 50 46 45
66 65 65 66 66 66 66 67 68 70 72 72 72 71 71 65 53 52 59 65 62 59 57 60 61 63 67 67 63 58 57 52 50 50 48 49 50 50 50 49 50 49 51 59 60 60 59 59 59 59 59 59 59 59 59 58 58 57 56 55 55 55 55 55 55 55 55 56 55 55 55 55 55 55 55 55 54 52 50 50 50 50 48 47 47
64 64 64 65 64 64 64 63 63 63 64 66 70 71 70 68 65 54 52 56 59 55 55 54 54 56 58 61 61 60 52 50 48 47 48 48 48 48 47 47 47 48 50 54 60 60 60 60 59 59 59 59 59 59 58 59 59 58 57 56 56 56 56 55 55 55 55 55 55 55 55 55 55 54 54 52 52 51 50 48 47 48 48 47 47
64 64 64 64 64 63 63 63 63 62 62 62 62 65 66 67 67 64 57 50 53 53 52 52 53 53 53 53 53 52 49 47 46 46 46 47 47 47 46 46 47 48 52 59 60 60 60 60 59 59 59 60 59 59 58 57 57 56 56 57 56 56 56 57 55 55 55 55 55 55 55 54 54 53 51 51 49 46 47 47 48 48 47 45 45
63 63 64 63 63 63 64 63 63 63 62 62 62 62 63 64 65 65 60 56 55 51 49 50 50 49 48 49 48 47 46 46 46 46 46 46 46 45 46 48 46 49 55 60 60 60 60 60 59 59 59 59 57 57 57 57 56 56 56 56 56 56 56 56 55 55 55 54 54 54 53 52 52 50 48 46 46 45 46 46 47 45 44 43 43
65 66 66 65 63 63 63 64 63 64 63 63 62 62 62 62 62 62 63 62 60 59 56 54 51 51 52 48 46 46 45 45 45 45 45 45 45 45 47 53 55 56 58 59 60 60 59 59 58 58 58 57 57 57 56 56 56 56 56 55 54 54 54 54 54 54 54 53 52 50 50 49 47 45 46 46 46 45 46 45 44 45 45 44 44
65 64 64 64 64 64 63 63 63 63 62 63 63 63 62 61 61 59 58 60 60 58 55 55 55 52 49 48 45 45 44 44 44 44 44 44 45 50 58 57 57 58 58 58 59 59 59 59 58 58 58 57 57 57 56 56 56 55 54 54 53 53 53 52 51 51 51 48 46 48 47 48 47 46 45 45 46 45 44 43 43 44 44 44 44
64 65 65 64 64 63 63 63 63 63 62 62 62 62 62 61 60 59 59 59 58 55 52 51 51 51 51 50 47 44 44 44 44 43 44 45 48 57 59 58 57 58 58 58 58 58 58 58 58 57 57 56 56 55 55 55 54 54 52 53 52 51 50 50 50 51 50 47 48 49 48 46 47 46 43 45 45 44 42 43 44 44 44 45 45
65 65 65 64 64 64 64 63 63 62 63 63 62 62 61 60 60 59 59 59 60 60 56 57 55 54 51 50 53 49 46 43 43 44 45 47 54 58 58 58 58 58 58 58 58 58 58 58 57 56 56 55 54 53 53 53 52 52 52 51 51 51 50 50 51 51 51 49 48 49 48 47 47 47 46 44 43 43 43 45 42 43 44 45 44
64 61 60 61 62 64 64 63 63 63 63 63 62 62 61 60 59 59 58 60 60 60 60 58 55 53 52 51 51 52 53 54 53 52 53 56 58 58 58 58 58 58 58 58 58 58 57 55 55 55 54 53 52 52 52 51 51 51 51 50 49 50 50 50 50 51 49 49 49 49 49 48 47 47 47 43 42 43 42 43 43 43 42 42 43
64 64 62 61 63 63 64 64 64 63 63 62 62 62 61 60 59 59 59 59 59 59 59 57 54 53 53 54 56 59 57 55 55 54 55 57 58 58 58 58 58 58 58 58 57 57 55 54 54 53 53 53 51 51 51 51 51 51 50 49 49 50 50 50 49 48 49 48 48 48 48 48 47 46 45 42 43 44 45 44 44 44 44 43 43
65 65 65 62 62 64 64 63 63 63 62 62 62 61 60 60 60 60 59 59 59 59 58 55 54 54 54 53 52 54 58 57 56 56 57 58 57 57 57 57 57 58 58 57 56 55 54 53 52 52 51 51 51 51 51 51 50 49 49 49 49 49 49 48 48 48 47 47 46 46 47 46 46 45 42 43 45 44 44 44 43 44 44 44 43
64 64 64 64 64 64 64 64 63 63 63 62 62 61 61 60 60 60 60 59 59 58 56 55 54 54 50 48 49 51 58 58 58 58 58 58 58 58 58 58 58 58 57 56 55 54 53 53 52 51 51 51 51 51 50 50 49 49 48 48 49 48 46 46 46 47 46 45 45 45 45 44 45 44 45 43 45 43 43 43 42 44 43 44 43
64 64 64 64 64 64 64 64 63 62 62 62 62 62 62 60 60 59 59 59 59 58 56 54 54 53 52 49 51 53 58 59 59 58 58 58 57 57 57 57 58 58 58 56 55 54 53 52 51 51 51 51 51 50 49 49 49 48 48 48 47 47 46 45 45 45 45 45 44 45 46 45 45 45 46 45 42 43 42 43 44 44 44 44 44
63 63 64 63 64 63 63 64 64 63 63 63 63 62 62 60 60 60 59 59 59 58 56 55 54 53 53 52 53 56 58 58 57 57 57 57 57 57 56 57 57 57 57 55 54 53 52 52 51 51 52 51 51 51 50 49 49 48 48 47 46 46 45 45 45 45 44 44 45 46 45 46 46 44 44 44 42 40 41 43 43 43 43 44 44
63 63 62 63 63 63 63 63 62 63 63 63 62 62 62 61 60 60 59 59 58 57 56 55 54 54 54 54 55 57 57 57 57 57 57 57 56 55 55 55 56 56 55 54 53 53 53 52 51 51 51 50 50 50 49 48 48 48 47 47 46 44 44 45 45 45 44 45 45 45 44 44 42 41 41 43 42 41 39 42 42 43 44 44 44
62 62 61 61 61 61 61 62 62 63 63 62 62 62 61 61 60 60 60 59 58 57 55 54 54 54 55 55 56 56 56 56 56 56 56 55 55 54 54 55 55 55 54 53 53 53 52 52 51 51 50 50 49 48 47 47 47 47 46 46 45 45 45 45 45 45 44 44 43 42 42 42 39 39 40 40 41 42 41 43 43 43 44 44 44
61 60 60 60 60 60 60 61 61 61 61 61 61 61 61 60 60 60 60 59 58 58 55 54 54 54 53 55 55 56 56 56 56 55 55 56 55 54 53 54 54 53 53 53 53 52 53 52 51 51 50 49 48 47 45 44 44 43 44 44 44 44 44 44 44 44 43 42 42 40 40 40 39 41 39 42 43 42 43 42 42 44 44 44 45
59 60 60 60 60 60 60 60 61 60 59 59 60 60 60 60 59 59 60 60 58 57 56 56 55 54 54 54 55 56 56 55 56 55 55 55 54 54 53 53 53 52 51 51 52 52 51 51 51 50 49 48 47 45 45 43 43 43 43 43 44 44 43 42 44 43 41 42 41 40 41 40 39 40 40 44 43 40 40 39 42 43 44 45 45
60 60 60 60 59 59 59 60 60 60 59 60 60 60 59 59 59 59 58 58 58 57 56 56 55 56 55 55 54 55 55 55 55 55 55 54 54 54 53 52 52 51 50 50 50 51 51 51 50 49 49 48 47 45 44 42 41 42 43 42 42 39 37 39 40 42 38 41 41 40 40 40 39 41 40 41 40 39 39 41 42 43 44 46 45
60 60 60 60 59 59 59 59 59 59 59 59 59 59 59 59 59 59 58 57 57 56 56 55 56 56 56 55 55 55 55 54 54 54 54 54 54 53 52 52 51 50 50 49 49 50 49 49 50 49 48 47 45 44 42 42 42 42 42 42 37 35 34 35 36 36 39 40 40 39 38 38 39 39 39 40 40 39 39 40 42 44 45 44 44
59 59 59 58 58 57 57 57 57 57 59 58 58 58 58 58 57 57 58 57 56 56 56 55 56 56 56 56 56 55 55 55 54 54 54 54 53 53 52 51 50 50 49 49 49 48 48 48 47 47 46 45 44 43 42 42 42 42 40 37 35 35 35 37 39 34 37 37 40 39 37 38 38 37 37 36 37 37 39 41 44 45 44 43 42